Time,TemperatureF,DewpointF,PressureIn,WindDirection,WindDirectionDegrees,WindSpeedMPH,WindSpeedGustMPH,Humidity,HourlyPrecipIn,Conditions,Clouds,dailyrainin,SoftwareType,DateUTC
2014-03-01 00:00:00,51.1,48.9,29.76,SSW,198,1.0,7.0,92,0.05,,---,2.06,VWS V14.01,2014-03-01 08:00:00,
2014-03-01 00:03:00,51.2,49.0,29.76,SSW,198,2.0,2.0,92,0.04,,---,0.00,VWS V14.01,2014-03-01 08:03:00,
2014-03-01 00:08:00,51.4,49.2,29.76,SSW,198,0.0,3.0,92,0.04,,---,0.00,VWS V14.01,2014-03-01 08:08:00,
2014-03-01 00:13:00,51.6,49.4,29.76,NW,321,0.0,4.0,92,0.04,,---,0.00,VWS V14.01,2014-03-01 08:13:00,
2014-03-01 00:15:00,51.5,49.3,29.76,NW,321,0.0,4.0,92,0.05,,---,0.01,VWS V14.01,2014-03-01 08:15:00,
2014-03-01 00:18:00,51.4,49.2,29.76,NW,322,0.0,0.0,92,0.05,,---,0.01,VWS V14.01,2014-03-01 08:18:00,
2014-03-01 00:23:00,51.4,49.2,29.76,NW,321,0.0,0.0,92,0.05,,---,0.01,VWS V14.01,2014-03-01 08:23:00,
2014-03-01 00:28:00,51.4,49.2,29.76,NW,325,0.0,0.0,92,0.06,,---,0.02,VWS V14.01,2014-03-01 08:28:00,
2014-03-01 00:30:00,51.4,49.2,29.76,ESE,110,0.0,2.0,92,0.06,,---,0.02,VWS V14.01,2014-03-01 08:30:00,
2014-03-01 00:33:00,51.5,49.3,29.76,ESE,109,0.0,0.0,92,0.04,,---,0.02,VWS V14.01,2014-03-01 08:33:00,
2014-03-01 00:38:00,51.3,49.1,29.76,WSW,238,0.0,4.0,92,0.04,,---,0.02,VWS V14.01,2014-03-01 08:38:00,
2014-03-01 00:43:00,51.1,48.9,29.76,WSW,238,0.0,4.0,92,0.04,,---,0.02,VWS V14.01,2014-03-01 08:43:00,
2014-03-01 00:45:00,51.1,48.9,29.76,WSW,238,0.0,4.0,92,0.05,,---,0.03,VWS V14.01,2014-03-01 08:45:00,
2014-03-01 00:48:00,51.0,48.8,29.77,NE,34,0.0,3.0,92,0.05,,---,0.03,VWS V14.01,2014-03-01 08:48:00,
2014-03-01 00:53:00,51.0,48.8,29.77,NNE,33,0.0,3.0,92,0.05,,---,0.03,VWS V14.01,2014-03-01 08:53:00,
2014-03-01 00:58:00,51.0,48.8,29.77,NE,34,0.0,3.0,92,0.06,,---,0.04,VWS V14.01,2014-03-01 08:58:00,
2014-03-01 01:00:00,51.0,48.8,29.77,NE,34,0.0,3.0,92,0.06,,---,0.04,VWS V14.01,2014-03-01 09:00:00,
2014-03-01 01:03:00,51.0,48.8,29.77,NNE,33,2.0,3.0,92,0.04,,---,0.04,VWS V14.01,2014-03-01 09:03:00,
2014-03-01 01:08:00,51.1,48.9,29.77,NNE,33,3.0,3.0,92,0.04,,---,0.04,VWS V14.01,2014-03-01 09:08:00,
2014-03-01 01:13:00,51.2,49.0,29.77,NE,42,0.0,4.0,92,0.05,,---,0.05,VWS V14.01,2014-03-01 09:13:00,
2014-03-01 01:15:00,51.2,49.2,29.77,NE,47,0.0,4.0,93,0.05,,---,0.05,VWS V14.01,2014-03-01 09:15:00,
2014-03-01 01:18:00,51.3,49.3,29.77,NE,47,0.0,3.0,93,0.04,,---,0.05,VWS V14.01,2014-03-01 09:18:00,
2014-03-01 01:23:00,51.4,49.5,29.77,NE,47,2.0,3.0,93,0.05,,---,0.06,VWS V14.01,2014-03-01 09:23:00,
2014-03-01 01:28:00,51.4,49.2,29.76,NE,46,0.0,3.0,92,0.05,,---,0.06,VWS V14.01,2014-03-01 09:28:00,
2014-03-01 01:30:00,51.4,49.2,29.76,NE,47,0.0,3.0,92,0.05,,---,0.06,VWS V14.01,2014-03-01 09:30:00,
2014-03-01 01:33:00,51.4,49.2,29.76,NE,47,0.0,0.0,92,0.04,,---,0.06,VWS V14.01,2014-03-01 09:33:00,
2014-03-01 01:38:00,51.5,49.3,29.75,NE,47,0.0,0.0,92,0.05,,---,0.07,VWS V14.01,2014-03-01 09:38:00,
2014-03-01 01:43:00,51.5,49.3,29.76,NE,47,0.0,3.0,92,0.05,,---,0.07,VWS V14.01,2014-03-01 09:43:00,
2014-03-01 01:45:00,51.5,49.3,29.77,NE,47,0.0,3.0,92,0.05,,---,0.07,VWS V14.01,2014-03-01 09:45:00,
2014-03-01 01:48:00,51.5,49.3,29.76,NE,47,0.0,0.0,92,0.04,,---,0.07,VWS V14.01,2014-03-01 09:48:00,
2014-03-01 01:53:00,51.5,49.3,29.76,South,182,0.0,6.0,92,0.05,,---,0.08,VWS V14.01,2014-03-01 09:53:00,
2014-03-01 01:58:00,51.5,49.3,29.76,SW,229,2.0,6.0,92,0.05,,---,0.08,VWS V14.01,2014-03-01 09:58:00,
2014-03-01 02:00:00,51.4,49.2,29.76,SW,229,3.0,6.0,92,0.05,,---,0.08,VWS V14.01,2014-03-01 10:00:00,
2014-03-01 02:03:00,51.1,48.9,29.76,SW,229,1.0,4.0,92,0.04,,---,0.08,VWS V14.01,2014-03-01 10:03:00,
2014-03-01 02:08:00,50.7,48.5,29.76,SW,227,2.0,4.0,92,0.05,,---,0.09,VWS V14.01,2014-03-01 10:08:00,
2014-03-01 02:13:00,50.4,48.2,29.76,SW,227,0.0,4.0,92,0.05,,---,0.09,VWS V14.01,2014-03-01 10:13:00,
2014-03-01 02:15:00,50.3,48.1,29.76,SW,227,0.0,4.0,92,0.05,,---,0.09,VWS V14.01,2014-03-01 10:15:00,
2014-03-01 02:18:00,50.3,48.1,29.75,SW,227,0.0,0.0,92,0.04,,---,0.09,VWS V14.01,2014-03-01 10:18:00,
2014-03-01 02:23:00,50.2,48.0,29.76,SW,228,0.0,0.0,92,0.05,,---,0.10,VWS V14.01,2014-03-01 10:23:00,
2014-03-01 02:28:00,50.2,48.0,29.76,SW,228,0.0,1.0,92,0.05,,---,0.10,VWS V14.01,2014-03-01 10:28:00,
2014-03-01 02:30:00,50.2,48.0,29.76,SW,228,0.0,1.0,92,0.05,,---,0.10,VWS V14.01,2014-03-01 10:30:00,
2014-03-01 02:33:00,50.3,48.1,29.76,SW,228,0.0,0.0,92,0.04,,---,0.10,VWS V14.01,2014-03-01 10:33:00,
2014-03-01 02:38:00,50.3,48.1,29.76,South,171,0.0,4.0,92,0.05,,---,0.11,VWS V14.01,2014-03-01 10:38:00,
2014-03-01 02:43:00,50.4,48.2,29.76,South,171,1.0,4.0,92,0.05,,---,0.11,VWS V14.01,2014-03-01 10:43:00,
2014-03-01 02:45:00,50.5,48.3,29.76,South,169,0.0,4.0,92,0.05,,---,0.11,VWS V14.01,2014-03-01 10:45:00,
2014-03-01 02:48:00,50.5,48.3,29.76,South,170,0.0,0.0,92,0.04,,---,0.11,VWS V14.01,2014-03-01 10:48:00,
2014-03-01 02:53:00,50.6,48.4,29.76,South,170,2.0,2.0,92,0.05,,---,0.12,VWS V14.01,2014-03-01 10:53:00,
2014-03-01 02:58:00,50.7,48.5,29.76,South,169,0.0,2.0,92,0.05,,---,0.12,VWS V14.01,2014-03-01 10:58:00,
2014-03-01 03:00:00,50.7,48.5,29.76,ESE,117,2.0,3.0,92,0.05,,---,0.12,VWS V14.01,2014-03-01 11:00:00,
2014-03-01 03:03:00,50.8,48.6,29.76,ESE,117,0.0,3.0,92,0.04,,---,0.12,VWS V14.01,2014-03-01 11:03:00,
2014-03-01 03:08:00,50.9,48.7,29.76,ENE,59,3.0,4.0,92,0.04,,---,0.12,VWS V14.01,2014-03-01 11:08:00,
2014-03-01 03:13:00,51.0,48.8,29.76,ENE,59,0.0,4.0,92,0.05,,---,0.13,VWS V14.01,2014-03-01 11:13:00,
2014-03-01 03:15:00,51.0,48.8,29.76,ENE,59,0.0,4.0,92,0.05,,---,0.13,VWS V14.01,2014-03-01 11:15:00,
2014-03-01 03:18:00,51.0,48.8,29.76,ENE,59,0.0,0.0,92,0.04,,---,0.13,VWS V14.01,2014-03-01 11:18:00,
2014-03-01 03:23:00,51.1,49.2,29.76,NE,46,2.0,4.0,93,0.05,,---,0.14,VWS V14.01,2014-03-01 11:23:00,
2014-03-01 03:28:00,51.1,49.2,29.76,NE,34,4.0,4.0,93,0.05,,---,0.14,VWS V14.01,2014-03-01 11:28:00,
2014-03-01 03:30:00,51.1,49.2,29.76,NNE,32,3.0,5.0,93,0.05,,---,0.14,VWS V14.01,2014-03-01 11:30:00,
2014-03-01 03:33:00,51.1,49.2,29.76,NNE,32,0.0,3.0,93,0.04,,---,0.14,VWS V14.01,2014-03-01 11:33:00,
2014-03-01 03:38:00,50.9,48.7,29.77,NNE,30,0.0,3.0,92,0.04,,---,0.14,VWS V14.01,2014-03-01 11:38:00,
2014-03-01 03:43:00,50.8,48.6,29.77,SSW,211,0.0,4.0,92,0.05,,---,0.15,VWS V14.01,2014-03-01 11:43:00,
2014-03-01 03:45:00,50.8,48.6,29.77,SSW,211,2.0,4.0,92,0.05,,---,0.15,VWS V14.01,2014-03-01 11:45:00,
2014-03-01 03:48:00,50.7,48.5,29.77,South,190,0.0,3.0,92,0.04,,---,0.15,VWS V14.01,2014-03-01 11:48:00,
2014-03-01 03:53:00,50.7,48.5,29.77,South,190,2.0,3.0,92,0.04,,---,0.15,VWS V14.01,2014-03-01 11:53:00,
2014-03-01 03:58:00,51.0,48.8,29.77,South,190,0.0,3.0,92,0.05,,---,0.16,VWS V14.01,2014-03-01 11:58:00,
2014-03-01 04:00:00,51.2,49.2,29.77,South,190,0.0,3.0,93,0.05,,---,0.16,VWS V14.01,2014-03-01 12:00:00,
2014-03-01 04:03:00,51.4,49.5,29.78,South,190,0.0,0.0,93,0.04,,---,0.16,VWS V14.01,2014-03-01 12:03:00,
2014-03-01 04:08:00,51.8,49.8,29.78,South,190,0.0,3.0,93,0.04,,---,0.16,VWS V14.01,2014-03-01 12:08:00,
2014-03-01 04:13:00,52.1,50.1,29.78,South,190,0.0,3.0,93,0.04,,---,0.16,VWS V14.01,2014-03-01 12:13:00,
2014-03-01 04:15:00,52.3,50.3,29.77,South,190,0.0,3.0,93,0.05,,---,0.17,VWS V14.01,2014-03-01 12:15:00,
2014-03-01 04:18:00,52.3,50.3,29.77,South,190,0.0,0.0,93,0.04,,---,0.17,VWS V14.01,2014-03-01 12:18:00,
2014-03-01 04:23:00,52.4,50.4,29.77,South,190,0.0,0.0,93,0.04,,---,0.17,VWS V14.01,2014-03-01 12:23:00,
2014-03-01 04:28:00,52.5,50.5,29.77,South,190,1.0,3.0,93,0.04,,---,0.17,VWS V14.01,2014-03-01 12:28:00,
2014-03-01 04:30:00,52.5,50.5,29.77,South,190,2.0,3.0,93,0.05,,---,0.18,VWS V14.01,2014-03-01 12:30:00,
2014-03-01 04:33:00,52.4,50.4,29.77,ESE,111,1.0,3.0,93,0.04,,---,0.18,VWS V14.01,2014-03-01 12:33:00,
2014-03-01 04:38:00,52.2,50.0,29.77,NE,50,0.0,5.0,92,0.04,,---,0.18,VWS V14.01,2014-03-01 12:38:00,
2014-03-01 04:43:00,52.1,49.8,29.77,NE,49,2.0,5.0,92,0.04,,---,0.18,VWS V14.01,2014-03-01 12:43:00,
2014-03-01 04:45:00,52.0,49.8,29.77,NE,50,0.0,5.0,92,0.04,,---,0.18,VWS V14.01,2014-03-01 12:45:00,
2014-03-01 04:48:00,52.0,50.0,29.77,NE,51,0.0,0.0,93,0.03,,---,0.18,VWS V14.01,2014-03-01 12:48:00,
2014-03-01 04:53:00,52.0,50.0,29.78,NE,49,0.0,0.0,93,0.04,,---,0.19,VWS V14.01,2014-03-01 12:53:00,
2014-03-01 04:58:00,51.5,49.3,29.78,SE,126,1.0,11.0,92,0.04,,---,0.19,VWS V14.01,2014-03-01 12:58:00,
2014-03-01 05:00:00,51.0,48.8,29.78,SSE,149,0.0,11.0,92,0.04,,---,0.19,VWS V14.01,2014-03-01 13:00:00,
2014-03-01 05:03:00,50.5,48.3,29.78,SSE,147,3.0,6.0,92,0.03,,---,0.19,VWS V14.01,2014-03-01 13:03:00,
2014-03-01 05:08:00,50.0,47.8,29.78,SW,223,0.0,8.0,92,0.04,,---,0.20,VWS V14.01,2014-03-01 13:08:00,
2014-03-01 05:13:00,49.9,47.7,29.79,SSE,163,0.0,8.0,92,0.04,,---,0.20,VWS V14.01,2014-03-01 13:13:00,
2014-03-01 05:15:00,49.9,47.7,29.79,SSE,163,0.0,8.0,92,0.04,,---,0.20,VWS V14.01,2014-03-01 13:15:00,
2014-03-01 05:18:00,49.9,47.7,29.79,SSE,163,0.0,0.0,92,0.03,,---,0.20,VWS V14.01,2014-03-01 13:18:00,
2014-03-01 05:23:00,50.0,47.8,29.79,NNE,32,2.0,5.0,92,0.03,,---,0.20,VWS V14.01,2014-03-01 13:23:00,
2014-03-01 05:28:00,50.1,47.9,29.79,ENE,59,2.0,5.0,92,0.03,,---,0.20,VWS V14.01,2014-03-01 13:28:00,
2014-03-01 05:30:00,50.1,47.9,29.79,NE,56,3.0,6.0,92,0.04,,---,0.21,VWS V14.01,2014-03-01 13:30:00,
2014-03-01 05:33:00,50.1,47.9,29.79,ENE,61,5.0,5.0,92,0.03,,---,0.21,VWS V14.01,2014-03-01 13:33:00,
2014-03-01 05:38:00,50.0,47.8,29.79,NE,54,3.0,6.0,92,0.03,,---,0.21,VWS V14.01,2014-03-01 13:38:00,
2014-03-01 05:43:00,49.8,47.6,29.79,NE,53,5.0,7.0,92,0.04,,---,0.22,VWS V14.01,2014-03-01 13:43:00,
2014-03-01 05:45:00,49.7,47.5,29.79,NE,52,3.0,7.0,92,0.04,,---,0.22,VWS V14.01,2014-03-01 13:45:00,
2014-03-01 05:48:00,49.6,47.4,29.79,NE,49,4.0,5.0,92,0.04,,---,0.22,VWS V14.01,2014-03-01 13:48:00,
2014-03-01 05:53:00,49.4,47.2,29.80,NE,54,3.0,7.0,92,0.04,,---,0.22,VWS V14.01,2014-03-01 13:53:00,
2014-03-01 05:58:00,49.4,47.2,29.80,ENE,60,3.0,7.0,92,0.04,,---,0.22,VWS V14.01,2014-03-01 13:58:00,
2014-03-01 06:00:00,49.4,47.2,29.80,ENE,58,4.0,7.0,92,0.04,,---,0.22,VWS V14.01,2014-03-01 14:00:00,
2014-03-01 06:03:00,49.5,47.3,29.80,NE,52,5.0,6.0,92,0.03,,---,0.22,VWS V14.01,2014-03-01 14:03:00,
2014-03-01 06:08:00,49.6,47.4,29.80,NE,45,4.0,6.0,92,0.04,,---,0.23,VWS V14.01,2014-03-01 14:08:00,
2014-03-01 06:12:00,49.7,47.5,29.80,ENE,57,0.0,6.0,92,0.04,,---,0.23,VWS V14.01,2014-03-01 14:12:00,
2014-03-01 06:15:00,49.8,47.6,29.80,ENE,71,3.0,6.0,92,0.04,,---,0.23,VWS V14.01,2014-03-01 14:15:00,
2014-03-01 06:17:00,49.9,47.7,29.80,East,83,3.0,5.0,92,0.03,,---,0.23,VWS V14.01,2014-03-01 14:17:00,
2014-03-01 06:22:00,50.0,47.8,29.80,ENE,70,2.0,5.0,92,0.04,,---,0.24,VWS V14.01,2014-03-01 14:22:00,
2014-03-01 06:27:00,50.2,48.0,29.80,ENE,69,0.0,5.0,92,0.04,,---,0.24,VWS V14.01,2014-03-01 14:27:00,
2014-03-01 06:30:00,50.2,48.0,29.80,ENE,70,0.0,5.0,92,0.04,,---,0.24,VWS V14.01,2014-03-01 14:30:00,
2014-03-01 06:32:00,50.3,48.1,29.80,ENE,70,0.0,0.0,92,0.03,,---,0.24,VWS V14.01,2014-03-01 14:32:00,
2014-03-01 06:37:00,50.5,48.3,29.80,ENE,69,0.0,3.0,92,0.03,,---,0.24,VWS V14.01,2014-03-01 14:37:00,
2014-03-01 06:42:00,50.6,48.4,29.79,NE,53,3.0,5.0,92,0.03,,---,0.24,VWS V14.01,2014-03-01 14:42:00,
2014-03-01 06:45:00,50.6,48.4,29.80,NE,53,0.0,5.0,92,0.04,,---,0.25,VWS V14.01,2014-03-01 14:45:00,
2014-03-01 06:47:00,50.7,48.5,29.80,NE,53,0.0,4.0,92,0.03,,---,0.25,VWS V14.01,2014-03-01 14:47:00,
2014-03-01 06:52:00,50.8,48.6,29.80,NE,52,2.0,4.0,92,0.03,,---,0.25,VWS V14.01,2014-03-01 14:52:00,
2014-03-01 06:57:00,50.8,48.6,29.80,ENE,74,3.0,5.0,92,0.03,,---,0.25,VWS V14.01,2014-03-01 14:57:00,
2014-03-01 07:00:00,50.9,48.7,29.80,ENE,74,1.0,5.0,92,0.03,,---,0.25,VWS V14.01,2014-03-01 15:00:00,
2014-03-01 07:02:00,51.0,48.8,29.80,ENE,74,0.0,3.0,92,0.03,,---,0.25,VWS V14.01,2014-03-01 15:02:00,
2014-03-01 07:07:00,51.1,49.2,29.80,ENE,74,0.0,3.0,93,0.04,,---,0.26,VWS V14.01,2014-03-01 15:07:00,
2014-03-01 07:12:00,51.3,49.3,29.81,ENE,74,0.0,4.0,93,0.04,,---,0.26,VWS V14.01,2014-03-01 15:12:00,
2014-03-01 07:15:00,51.4,49.5,29.81,ENE,74,2.0,4.0,93,0.04,,---,0.26,VWS V14.01,2014-03-01 15:15:00,
2014-03-01 07:17:00,51.4,49.2,29.81,ENE,74,2.0,3.0,92,0.03,,---,0.26,VWS V14.01,2014-03-01 15:17:00,
2014-03-01 07:22:00,51.5,49.3,29.81,ENE,74,0.0,4.0,92,0.03,,---,0.26,VWS V14.01,2014-03-01 15:22:00,
2014-03-01 07:27:00,51.6,49.4,29.81,ENE,74,0.0,4.0,92,0.03,,---,0.26,VWS V14.01,2014-03-01 15:27:00,
2014-03-01 07:30:00,51.7,49.5,29.81,ENE,74,0.0,4.0,92,0.04,,---,0.27,VWS V14.01,2014-03-01 15:30:00,
2014-03-01 07:32:00,51.8,49.8,29.81,ENE,74,0.0,0.0,93,0.03,,---,0.27,VWS V14.01,2014-03-01 15:32:00,
2014-03-01 07:37:00,51.9,49.9,29.81,ENE,74,0.0,0.0,93,0.03,,---,0.27,VWS V14.01,2014-03-01 15:37:00,
2014-03-01 07:42:00,51.9,49.9,29.81,ENE,69,0.0,5.0,93,0.03,,---,0.27,VWS V14.01,2014-03-01 15:42:00,
2014-03-01 07:45:00,51.9,49.9,29.81,ENE,70,3.0,5.0,93,0.03,,---,0.27,VWS V14.01,2014-03-01 15:45:00,
2014-03-01 07:47:00,51.9,49.9,29.81,ENE,70,3.0,4.0,93,0.03,,---,0.28,VWS V14.01,2014-03-01 15:47:00,
2014-03-01 07:52:00,51.9,49.9,29.81,NE,55,3.0,7.0,93,0.03,,---,0.28,VWS V14.01,2014-03-01 15:52:00,
2014-03-01 07:57:00,51.7,49.5,29.82,SE,130,4.0,7.0,92,0.03,,---,0.28,VWS V14.01,2014-03-01 15:57:00,
2014-03-01 08:00:00,51.5,49.3,29.83,SW,226,4.0,11.0,92,0.03,,---,0.28,VWS V14.01,2014-03-01 16:00:00,
2014-03-01 08:02:00,51.5,49.3,29.83,SSW,210,4.0,10.0,92,0.03,,---,0.28,VWS V14.01,2014-03-01 16:02:00,
2014-03-01 08:07:00,50.8,48.6,29.83,SSE,163,0.0,12.0,92,0.03,,---,0.28,VWS V14.01,2014-03-01 16:07:00,
2014-03-01 08:12:00,50.9,48.7,29.83,SE,146,0.0,12.0,92,0.04,,---,0.29,VWS V14.01,2014-03-01 16:12:00,
2014-03-01 08:15:00,51.1,48.9,29.83,SE,146,0.0,12.0,92,0.04,,---,0.29,VWS V14.01,2014-03-01 16:15:00,
2014-03-01 08:17:00,51.2,49.0,29.83,SE,146,0.0,0.0,92,0.03,,---,0.29,VWS V14.01,2014-03-01 16:17:00,
2014-03-01 08:22:00,51.3,49.1,29.83,SSE,155,0.0,5.0,92,0.03,,---,0.29,VWS V14.01,2014-03-01 16:22:00,
2014-03-01 08:27:00,51.7,49.5,29.83,SSE,155,0.0,9.0,92,0.03,,---,0.29,VWS V14.01,2014-03-01 16:27:00,
2014-03-01 08:30:00,52.0,50.0,29.83,SE,136,0.0,9.0,93,0.04,,---,0.30,VWS V14.01,2014-03-01 16:30:00,
2014-03-01 08:32:00,52.2,50.2,29.84,SSW,202,1.0,3.0,93,0.03,,---,0.30,VWS V14.01,2014-03-01 16:32:00,
2014-03-01 08:37:00,52.5,50.5,29.84,SSE,163,3.0,7.0,93,0.03,,---,0.30,VWS V14.01,2014-03-01 16:37:00,
2014-03-01 08:42:00,52.4,50.4,29.84,SSE,167,3.0,7.0,93,0.03,,---,0.30,VWS V14.01,2014-03-01 16:42:00,
2014-03-01 08:45:00,52.2,50.0,29.84,ESE,102,3.0,7.0,92,0.03,,---,0.30,VWS V14.01,2014-03-01 16:45:00,
2014-03-01 08:47:00,52.2,50.0,29.84,SE,145,0.0,5.0,92,0.03,,---,0.30,VWS V14.01,2014-03-01 16:47:00,
2014-03-01 08:52:00,52.1,49.8,29.84,ESE,117,2.0,5.0,92,0.04,,---,0.31,VWS V14.01,2014-03-01 16:52:00,
2014-03-01 08:57:00,52.0,49.8,29.84,ESE,119,0.0,5.0,92,0.04,,---,0.31,VWS V14.01,2014-03-01 16:57:00,
2014-03-01 09:00:00,51.9,49.7,29.85,SSE,149,0.0,5.0,92,0.04,,---,0.31,VWS V14.01,2014-03-01 17:00:00,
2014-03-01 09:02:00,51.9,49.7,29.85,ESE,112,0.0,4.0,92,0.03,,---,0.31,VWS V14.01,2014-03-01 17:02:00,
2014-03-01 09:07:00,52.0,49.8,29.84,ESE,104,2.0,6.0,92,0.04,,---,0.32,VWS V14.01,2014-03-01 17:07:00,
2014-03-01 09:12:00,51.9,49.7,29.85,SSE,163,1.0,6.0,92,0.04,,---,0.32,VWS V14.01,2014-03-01 17:12:00,
2014-03-01 09:15:00,52.0,49.8,29.85,SE,140,0.0,6.0,92,0.04,,---,0.32,VWS V14.01,2014-03-01 17:15:00,
2014-03-01 09:17:00,52.1,49.8,29.85,SE,140,3.0,3.0,92,0.03,,---,0.32,VWS V14.01,2014-03-01 17:17:00,
2014-03-01 09:22:00,52.4,50.2,29.85,SE,140,0.0,3.0,92,0.03,,---,0.32,VWS V14.01,2014-03-01 17:22:00,
2014-03-01 09:27:00,53.0,50.7,29.85,SE,140,0.0,3.0,92,0.03,,---,0.32,VWS V14.01,2014-03-01 17:27:00,
2014-03-01 09:30:00,53.5,51.2,29.85,SE,140,0.0,3.0,92,0.04,,---,0.33,VWS V14.01,2014-03-01 17:30:00,
2014-03-01 09:32:00,53.7,51.4,29.85,SE,140,0.0,0.0,92,0.03,,---,0.33,VWS V14.01,2014-03-01 17:32:00,
2014-03-01 09:37:00,54.4,52.4,29.85,SE,140,0.0,1.0,93,0.03,,---,0.33,VWS V14.01,2014-03-01 17:37:00,
2014-03-01 09:42:00,54.8,52.5,29.84,SE,140,0.0,3.0,92,0.03,,---,0.33,VWS V14.01,2014-03-01 17:42:00,
2014-03-01 09:45:00,54.6,52.3,29.84,SE,140,0.0,3.0,92,0.04,,---,0.34,VWS V14.01,2014-03-01 17:45:00,
2014-03-01 09:47:00,54.5,52.2,29.84,SE,139,0.0,1.0,92,0.04,,---,0.34,VWS V14.01,2014-03-01 17:47:00,
2014-03-01 09:52:00,54.2,51.9,29.85,ESE,103,0.0,4.0,92,0.04,,---,0.34,VWS V14.01,2014-03-01 17:52:00,
2014-03-01 09:57:00,54.5,52.2,29.84,SE,138,0.0,5.0,92,0.04,,---,0.34,VWS V14.01,2014-03-01 17:57:00,
2014-03-01 10:00:00,54.3,52.0,29.84,South,176,4.0,7.0,92,0.04,,---,0.34,VWS V14.01,2014-03-01 18:00:00,
2014-03-01 10:02:00,54.5,51.9,29.84,SSE,153,0.0,5.0,91,0.03,,---,0.34,VWS V14.01,2014-03-01 18:02:00,
2014-03-01 10:07:00,55.2,52.6,29.84,ESE,123,0.0,5.0,91,0.04,,---,0.35,VWS V14.01,2014-03-01 18:07:00,
2014-03-01 10:12:00,55.9,53.3,29.84,SE,138,3.0,11.0,91,0.04,,---,0.35,VWS V14.01,2014-03-01 18:12:00,
2014-03-01 10:15:00,55.7,52.8,29.84,South,169,0.0,11.0,90,0.04,,---,0.35,VWS V14.01,2014-03-01 18:15:00,
2014-03-01 10:17:00,55.5,52.3,29.84,South,175,2.0,10.0,89,0.03,,---,0.35,VWS V14.01,2014-03-01 18:17:00,
2014-03-01 10:22:00,55.6,52.4,29.84,SSE,151,0.0,10.0,89,0.04,,---,0.36,VWS V14.01,2014-03-01 18:22:00,
2014-03-01 10:27:00,55.6,52.1,29.84,SSE,155,3.0,10.0,88,0.04,,---,0.36,VWS V14.01,2014-03-01 18:27:00,
2014-03-01 10:30:00,55.9,52.7,29.84,South,174,0.0,10.0,89,0.04,,---,0.36,VWS V14.01,2014-03-01 18:30:00,
2014-03-01 10:32:00,56.4,53.5,29.84,South,178,4.0,4.0,90,0.03,,---,0.36,VWS V14.01,2014-03-01 18:32:00,
2014-03-01 10:37:00,57.3,54.1,29.83,South,175,4.0,4.0,89,0.03,,---,0.36,VWS V14.01,2014-03-01 18:37:00,
2014-03-01 10:42:00,57.8,54.3,29.83,SSE,148,0.0,7.0,88,0.03,,---,0.36,VWS V14.01,2014-03-01 18:42:00,
2014-03-01 10:45:00,58.0,54.2,29.83,ESE,118,2.0,7.0,87,0.04,,---,0.37,VWS V14.01,2014-03-01 18:45:00,
2014-03-01 10:47:00,57.8,53.3,29.84,SW,228,3.0,7.0,85,0.03,,---,0.37,VWS V14.01,2014-03-01 18:47:00,
2014-03-01 10:52:00,57.8,53.3,29.83,South,179,0.0,7.0,85,0.03,,---,0.37,VWS V14.01,2014-03-01 18:52:00,
2014-03-01 10:57:00,57.7,52.9,29.83,SE,136,0.0,7.0,84,0.03,,---,0.37,VWS V14.01,2014-03-01 18:57:00,
2014-03-01 11:00:00,57.7,52.9,29.83,SSW,196,0.0,7.0,84,0.04,,---,0.38,VWS V14.01,2014-03-01 19:00:00,
2014-03-01 11:02:00,57.8,53.0,29.84,South,188,0.0,0.0,84,0.04,,---,0.38,VWS V14.01,2014-03-01 19:02:00,
2014-03-01 11:07:00,58.2,53.4,29.84,South,187,0.0,1.0,84,0.04,,---,0.38,VWS V14.01,2014-03-01 19:07:00,
2014-03-01 11:12:00,58.4,53.3,29.84,SSW,196,1.0,5.0,83,0.04,,---,0.38,VWS V14.01,2014-03-01 19:12:00,
2014-03-01 11:15:00,58.5,53.0,29.83,SW,215,0.0,5.0,82,0.04,,---,0.38,VWS V14.01,2014-03-01 19:15:00,
2014-03-01 11:17:00,58.2,52.4,29.84,SW,215,0.0,0.0,81,0.03,,---,0.38,VWS V14.01,2014-03-01 19:17:00,
2014-03-01 11:22:00,57.7,51.9,29.84,SSW,205,0.0,4.0,81,0.03,,---,0.38,VWS V14.01,2014-03-01 19:22:00,
2014-03-01 11:27:00,57.5,52.1,29.84,SSW,195,0.0,4.0,82,0.04,,---,0.39,VWS V14.01,2014-03-01 19:27:00,
2014-03-01 11:30:00,57.6,52.5,29.83,SSE,158,0.0,4.0,83,0.04,,---,0.39,VWS V14.01,2014-03-01 19:30:00,
2014-03-01 11:32:00,57.6,52.5,29.83,South,171,3.0,5.0,83,0.03,,---,0.39,VWS V14.01,2014-03-01 19:32:00,
2014-03-01 11:37:00,57.4,52.9,29.84,SSE,162,9.0,9.0,85,0.03,,---,0.39,VWS V14.01,2014-03-01 19:37:00,
2014-03-01 11:42:00,57.2,53.1,29.84,SSE,150,0.0,9.0,86,0.04,,---,0.40,VWS V14.01,2014-03-01 19:42:00,
2014-03-01 11:45:00,57.2,53.1,29.84,SSW,194,3.0,9.0,86,0.04,,---,0.40,VWS V14.01,2014-03-01 19:45:00,
2014-03-01 11:47:00,57.1,53.0,29.84,SSW,202,5.0,7.0,86,0.03,,---,0.40,VWS V14.01,2014-03-01 19:47:00,
2014-03-01 11:52:00,56.3,51.5,29.84,SSW,206,3.0,13.0,84,0.03,,---,0.40,VWS V14.01,2014-03-01 19:52:00,
2014-03-01 11:57:00,56.1,52.0,29.84,South,184,2.0,13.0,86,0.03,,---,0.40,VWS V14.01,2014-03-01 19:57:00,
2014-03-01 12:00:00,56.2,52.1,29.84,SE,130,2.0,13.0,86,0.03,,---,0.40,VWS V14.01,2014-03-01 20:00:00,
2014-03-01 12:02:00,56.2,52.1,29.84,SE,136,1.0,4.0,86,0.03,,---,0.41,VWS V14.01,2014-03-01 20:02:00,
2014-03-01 12:07:00,56.3,52.2,29.84,West,265,3.0,6.0,86,0.03,,---,0.41,VWS V14.01,2014-03-01 20:07:00,
2014-03-01 12:12:00,56.3,52.5,29.84,West,263,4.0,6.0,87,0.03,,---,0.41,VWS V14.01,2014-03-01 20:12:00,
2014-03-01 12:15:00,56.2,52.4,29.84,WSW,254,2.0,6.0,87,0.03,,---,0.41,VWS V14.01,2014-03-01 20:15:00,
2014-03-01 12:17:00,56.1,52.0,29.84,SSE,153,4.0,7.0,86,0.04,,---,0.42,VWS V14.01,2014-03-01 20:17:00,
2014-03-01 12:22:00,55.8,51.7,29.84,SSE,153,0.0,7.0,86,0.04,,---,0.42,VWS V14.01,2014-03-01 20:22:00,
2014-03-01 12:27:00,55.9,52.1,29.84,SE,145,3.0,8.0,87,0.04,,---,0.42,VWS V14.01,2014-03-01 20:27:00,
2014-03-01 12:30:00,56.0,52.2,29.84,SSE,159,13.0,14.0,87,0.04,,---,0.42,VWS V14.01,2014-03-01 20:30:00,
2014-03-01 12:32:00,55.8,52.0,29.84,South,175,6.0,13.0,87,0.03,,---,0.42,VWS V14.01,2014-03-01 20:32:00,
2014-03-01 12:37:00,55.9,52.4,29.84,SSE,149,2.0,13.0,88,0.04,,---,0.43,VWS V14.01,2014-03-01 20:37:00,
2014-03-01 12:42:00,56.4,53.2,29.83,South,171,12.0,13.0,89,0.04,,---,0.43,VWS V14.01,2014-03-01 20:42:00,
2014-03-01 12:45:00,56.4,53.2,29.83,SW,219,4.0,13.0,89,0.04,,---,0.43,VWS V14.01,2014-03-01 20:45:00,
2014-03-01 12:47:00,56.5,53.3,29.83,SSW,202,12.0,12.0,89,0.03,,---,0.43,VWS V14.01,2014-03-01 20:47:00,
2014-03-01 12:52:00,56.2,52.7,29.83,SSW,203,6.0,12.0,88,0.03,,---,0.43,VWS V14.01,2014-03-01 20:52:00,
2014-03-01 12:57:00,56.4,52.9,29.83,SSE,163,5.0,12.0,88,0.04,,---,0.44,VWS V14.01,2014-03-01 20:57:00,
2014-03-01 13:00:00,56.5,53.0,29.83,South,178,9.0,12.0,88,0.04,,---,0.44,VWS V14.01,2014-03-01 21:00:00,
2014-03-01 13:02:00,56.6,53.1,29.83,SSW,210,3.0,9.0,88,0.04,,---,0.44,VWS V14.01,2014-03-01 21:02:00,
2014-03-01 13:07:00,56.6,52.8,29.83,SW,215,9.0,13.0,87,0.04,,---,0.44,VWS V14.01,2014-03-01 21:07:00,
2014-03-01 13:12:00,56.7,52.9,29.83,SW,236,8.0,13.0,87,0.04,,---,0.44,VWS V14.01,2014-03-01 21:12:00,
2014-03-01 13:15:00,56.8,53.0,29.83,SSE,160,2.0,13.0,87,0.04,,---,0.44,VWS V14.01,2014-03-01 21:15:00,
2014-03-01 13:17:00,56.8,53.0,29.82,South,174,11.0,12.0,87,0.03,,---,0.44,VWS V14.01,2014-03-01 21:17:00,
2014-03-01 13:22:00,56.9,53.1,29.83,SW,214,6.0,12.0,87,0.03,,---,0.44,VWS V14.01,2014-03-01 21:22:00,
2014-03-01 13:27:00,56.9,53.1,29.82,SSW,200,3.0,12.0,87,0.04,,---,0.45,VWS V14.01,2014-03-01 21:27:00,
2014-03-01 13:30:00,57.0,52.9,29.82,SSE,165,5.0,12.0,86,0.04,,---,0.45,VWS V14.01,2014-03-01 21:30:00,
2014-03-01 13:32:00,57.0,52.9,29.83,SSW,202,5.0,11.0,86,0.03,,---,0.45,VWS V14.01,2014-03-01 21:32:00,
2014-03-01 13:37:00,57.1,52.6,29.82,SW,223,5.0,12.0,85,0.03,,---,0.45,VWS V14.01,2014-03-01 21:37:00,
2014-03-01 13:42:00,57.3,52.8,29.83,South,185,3.0,12.0,85,0.03,,---,0.45,VWS V14.01,2014-03-01 21:42:00,
2014-03-01 13:45:00,57.8,53.7,29.82,South,178,12.0,12.0,86,0.03,,---,0.45,VWS V14.01,2014-03-01 21:45:00,
2014-03-01 13:47:00,58.0,53.2,29.82,SSW,192,0.0,12.0,84,0.02,,---,0.45,VWS V14.01,2014-03-01 21:47:00,
2014-03-01 13:52:00,58.2,52.7,29.82,SSE,159,5.0,12.0,82,0.03,,---,0.46,VWS V14.01,2014-03-01 21:52:00,
2014-03-01 13:57:00,58.1,52.6,29.82,SSE,160,8.0,12.0,82,0.03,,---,0.46,VWS V14.01,2014-03-01 21:57:00,
2014-03-01 14:00:00,58.0,51.5,29.82,SSE,160,6.0,12.0,79,0.03,,---,0.46,VWS V14.01,2014-03-01 22:00:00,
2014-03-01 14:06:00,57.9,51.4,29.82,SSW,210,5.0,5.0,79,0.00,,---,0.46,VWS V14.01,2014-03-01 22:06:00,
2014-03-01 14:11:00,57.6,51.1,29.83,SW,219,5.0,11.0,79,0.02,,---,0.46,VWS V14.01,2014-03-01 22:11:00,
2014-03-01 14:16:00,57.6,51.5,29.82,South,175,6.0,8.0,80,0.02,,---,0.46,VWS V14.01,2014-03-01 22:16:00,
2014-03-01 14:21:00,57.7,51.6,29.82,SW,221,11.0,11.0,80,0.02,,---,0.46,VWS V14.01,2014-03-01 22:21:00,
2014-03-01 14:26:00,57.7,51.9,29.82,SSW,207,5.0,13.0,81,0.03,,---,0.47,VWS V14.01,2014-03-01 22:26:00,
2014-03-01 14:30:00,57.4,52.0,29.82,SSE,163,0.0,13.0,82,0.02,,---,0.48,VWS V14.01,2014-03-01 22:30:00,
2014-03-01 14:31:00,58.0,52.2,29.82,SSW,210,6.0,8.0,81,0.02,,---,0.47,VWS V14.01,2014-03-01 22:31:00,
2014-03-01 14:36:00,57.8,51.3,29.82,South,174,3.0,12.0,79,0.02,,---,0.47,VWS V14.01,2014-03-01 22:36:00,
2014-03-01 14:41:00,57.8,51.3,29.82,SSW,207,10.0,14.0,79,0.02,,---,0.47,VWS V14.01,2014-03-01 22:41:00,
2014-03-01 14:45:00,57.0,51.2,29.82,SSE,150,0.0,9.0,81,0.01,,---,0.48,VWS V14.01,2014-03-01 22:45:00,
2014-03-01 14:46:00,57.8,51.0,29.82,SW,217,5.0,11.0,78,0.02,,---,0.47,VWS V14.01,2014-03-01 22:46:00,
2014-03-01 14:51:00,57.8,50.7,29.82,South,188,6.0,11.0,77,0.02,,---,0.47,VWS V14.01,2014-03-01 22:51:00,
2014-03-01 14:56:00,58.0,50.5,29.82,WSW,238,6.0,13.0,76,0.02,,---,0.47,VWS V14.01,2014-03-01 22:56:00,
2014-03-01 15:00:00,57.1,51.7,29.82,ESE,117,0.0,9.0,82,0.01,,---,0.48,VWS V14.01,2014-03-01 23:00:00,
2014-03-01 15:01:00,58.1,50.9,29.82,SW,224,9.0,12.0,77,0.02,,---,0.48,VWS V14.01,2014-03-01 23:01:00,
2014-03-01 15:06:00,58.0,51.2,29.82,SSW,201,4.0,12.0,78,0.02,,---,0.48,VWS V14.01,2014-03-01 23:06:00,
2014-03-01 15:11:00,58.0,51.2,29.82,South,190,2.0,12.0,78,0.02,,---,0.48,VWS V14.01,2014-03-01 23:11:00,
2014-03-01 15:15:00,57.0,51.6,29.82,SSW,196,3.0,9.0,82,0.00,,---,0.48,VWS V14.01,2014-03-01 23:15:00,
2014-03-01 15:16:00,57.8,50.7,29.82,SW,220,7.0,7.0,77,0.02,,---,0.48,VWS V14.01,2014-03-01 23:16:00,
2014-03-01 15:21:00,57.6,50.8,29.82,South,187,2.0,9.0,78,0.02,,---,0.48,VWS V14.01,2014-03-01 23:21:00,
2014-03-01 15:26:00,57.4,51.3,29.82,SW,217,5.0,13.0,80,0.02,,---,0.48,VWS V14.01,2014-03-01 23:26:00,
2014-03-01 15:30:00,56.7,50.6,29.82,SW,214,1.0,8.0,80,0.00,,---,0.48,VWS V14.01,2014-03-01 23:30:00,
2014-03-01 15:31:00,57.4,52.0,29.82,South,175,2.0,3.0,82,0.01,,---,0.48,VWS V14.01,2014-03-01 23:31:00,
2014-03-01 15:36:00,57.3,51.9,29.82,SSE,165,7.0,9.0,82,0.01,,---,0.48,VWS V14.01,2014-03-01 23:36:00,
2014-03-01 15:41:00,57.2,51.4,29.82,SW,215,5.0,9.0,81,0.01,,---,0.48,VWS V14.01,2014-03-01 23:41:00,
2014-03-01 15:45:00,56.4,50.7,29.82,SW,221,1.0,11.0,81,0.00,,---,0.48,VWS V14.01,2014-03-01 23:45:00,
2014-03-01 15:46:00,57.0,51.2,29.82,SSE,150,0.0,0.0,81,0.01,,---,0.48,VWS V14.01,2014-03-01 23:46:00,
2014-03-01 15:51:00,56.9,51.1,29.82,SE,142,3.0,9.0,81,0.01,,---,0.48,VWS V14.01,2014-03-01 23:51:00,
2014-03-01 15:56:00,57.1,51.7,29.82,SSE,153,5.0,9.0,82,0.01,,---,0.48,VWS V14.01,2014-03-01 23:56:00,
2014-03-01 16:00:00,56.0,50.6,29.82,South,180,0.0,10.0,82,0.00,,---,0.48,VWS V14.01,2014-03-02 00:00:00,
2014-03-01 16:01:00,57.1,51.7,29.82,ESE,118,0.0,0.0,82,0.00,,---,0.48,VWS V14.01,2014-03-02 00:01:00,
2014-03-01 16:06:00,57.2,51.8,29.82,East,92,0.0,5.0,82,0.00,,---,0.48,VWS V14.01,2014-03-02 00:06:00,
2014-03-01 16:11:00,57.1,51.7,29.82,SSE,158,0.0,9.0,82,0.00,,---,0.48,VWS V14.01,2014-03-02 00:11:00,
2014-03-01 16:15:00,55.8,51.0,29.84,SW,227,5.0,9.0,84,0.00,,---,0.48,VWS V14.01,2014-03-02 00:15:00,
2014-03-01 16:16:00,57.0,51.6,29.82,SSW,196,1.0,3.0,82,0.00,,---,0.48,VWS V14.01,2014-03-02 00:16:00,
2014-03-01 16:21:00,56.9,51.5,29.82,SW,214,3.0,7.0,82,0.00,,---,0.48,VWS V14.01,2014-03-02 00:21:00,
2014-03-01 16:26:00,56.9,51.5,29.82,SW,221,2.0,7.0,82,0.00,,---,0.48,VWS V14.01,2014-03-02 00:26:00,
2014-03-01 16:31:00,56.7,50.6,29.82,SE,144,3.0,7.0,80,0.00,,---,0.48,VWS V14.01,2014-03-02 00:31:00,
2014-03-01 16:36:00,56.6,50.5,29.82,SW,219,6.0,10.0,80,0.00,,---,0.48,VWS V14.01,2014-03-02 00:36:00,
2014-03-01 16:41:00,56.5,50.8,29.82,SSW,194,5.0,10.0,81,0.00,,---,0.48,VWS V14.01,2014-03-02 00:41:00,
2014-03-01 16:45:00,50.9,47.2,29.88,WSW,241,0.0,7.0,87,0.02,,---,0.50,VWS V14.01,2014-03-02 00:45:00,
2014-03-01 16:46:00,56.4,50.7,29.83,SW,221,1.0,2.0,81,0.00,,---,0.48,VWS V14.01,2014-03-02 00:46:00,
2014-03-01 16:51:00,56.3,50.9,29.83,South,187,4.0,7.0,82,0.00,,---,0.48,VWS V14.01,2014-03-02 00:51:00,
2014-03-01 16:56:00,56.1,50.7,29.82,South,171,7.0,10.0,82,0.00,,---,0.48,VWS V14.01,2014-03-02 00:56:00,
2014-03-01 17:00:00,50.7,47.6,29.88,East,82,0.0,3.0,89,0.02,,---,0.50,VWS V14.01,2014-03-02 01:00:00,
2014-03-01 17:01:00,56.0,50.6,29.82,South,180,0.0,0.0,82,0.00,,---,0.48,VWS V14.01,2014-03-02 01:01:00,
2014-03-01 17:06:00,55.9,50.8,29.83,SSE,161,2.0,7.0,83,0.00,,---,0.48,VWS V14.01,2014-03-02 01:06:00,
2014-03-01 17:11:00,55.9,50.8,29.83,SSW,200,0.0,7.0,83,0.00,,---,0.48,VWS V14.01,2014-03-02 01:11:00,
2014-03-01 17:15:00,50.8,47.7,29.88,NE,51,3.0,7.0,89,0.03,,---,0.51,VWS V14.01,2014-03-02 01:15:00,
2014-03-01 17:16:00,55.8,51.0,29.84,SW,231,6.0,6.0,84,0.00,,---,0.48,VWS V14.01,2014-03-02 01:16:00,
2014-03-01 17:20:00,55.3,49.6,29.86,SW,236,11.0,17.0,81,0.00,,---,0.48,VWS V14.01,2014-03-02 01:20:00,
2014-03-01 17:25:00,53.8,48.4,29.87,South,190,5.0,17.0,82,0.01,,---,0.49,VWS V14.01,2014-03-02 01:25:00,
2014-03-01 17:30:00,52.5,47.5,29.87,WSW,250,2.0,2.0,83,0.01,,---,0.49,VWS V14.01,2014-03-02 01:30:00,
2014-03-01 17:35:00,51.5,47.2,29.88,SW,235,2.0,7.0,85,0.01,,---,0.49,VWS V14.01,2014-03-02 01:35:00,
2014-03-01 17:40:00,51.1,47.4,29.88,WSW,258,4.0,7.0,87,0.02,,---,0.50,VWS V14.01,2014-03-02 01:40:00,
2014-03-01 17:45:00,50.9,47.5,29.88,WSW,242,0.0,0.0,88,0.02,,---,0.50,VWS V14.01,2014-03-02 01:45:00,
2014-03-01 17:50:00,50.7,47.3,29.88,WSW,246,0.0,1.0,88,0.02,,---,0.50,VWS V14.01,2014-03-02 01:50:00,
2014-03-01 17:55:00,50.6,47.2,29.88,West,268,2.0,2.0,88,0.02,,---,0.50,VWS V14.01,2014-03-02 01:55:00,
2014-03-01 18:00:00,50.7,47.6,29.88,East,83,0.0,0.0,89,0.02,,---,0.50,VWS V14.01,2014-03-02 02:00:00,
2014-03-01 18:05:00,50.7,47.6,29.88,East,82,0.0,3.0,89,0.03,,---,0.51,VWS V14.01,2014-03-02 02:05:00,
2014-03-01 18:10:00,50.8,47.7,29.88,East,79,3.0,4.0,89,0.03,,---,0.51,VWS V14.01,2014-03-02 02:10:00,
2014-03-01 18:15:00,50.8,48.0,29.88,NE,51,3.0,4.0,90,0.03,,---,0.51,VWS V14.01,2014-03-02 02:15:00,
2014-03-01 18:20:00,50.8,48.0,29.88,ENE,67,5.0,6.0,90,0.03,,---,0.51,VWS V14.01,2014-03-02 02:20:00,
2014-03-01 18:25:00,50.8,48.0,29.88,NE,55,2.0,7.0,90,0.04,,---,0.52,VWS V14.01,2014-03-02 02:25:00,
2014-03-01 18:30:00,50.7,47.9,29.88,ENE,58,2.0,3.0,90,0.03,,---,0.52,VWS V14.01,2014-03-02 02:30:00,
2014-03-01 18:35:00,50.6,47.8,29.88,ENE,59,3.0,6.0,90,0.03,,---,0.52,VWS V14.01,2014-03-02 02:35:00,
2014-03-01 18:40:00,50.6,47.8,29.88,ENE,60,2.0,6.0,90,0.03,,---,0.52,VWS V14.01,2014-03-02 02:40:00,
2014-03-01 18:45:00,50.6,47.8,29.89,ENE,64,3.0,3.0,90,0.02,,---,0.52,VWS V14.01,2014-03-02 02:45:00,
2014-03-01 18:50:00,50.6,47.8,29.89,ENE,69,2.0,4.0,90,0.03,,---,0.53,VWS V14.01,2014-03-02 02:50:00,
2014-03-01 18:55:00,50.6,47.8,29.89,ENE,68,0.0,5.0,90,0.03,,---,0.53,VWS V14.01,2014-03-02 02:55:00,
2014-03-01 19:00:00,50.5,47.7,29.89,ENE,69,1.0,2.0,90,0.03,,---,0.53,VWS V14.01,2014-03-02 03:00:00,
2014-03-01 19:05:00,50.5,47.7,29.89,ENE,69,4.0,4.0,90,0.03,,---,0.53,VWS V14.01,2014-03-02 03:05:00,
2014-03-01 19:10:00,50.4,47.6,29.89,ENE,68,2.0,5.0,90,0.04,,---,0.54,VWS V14.01,2014-03-02 03:10:00,
2014-03-01 19:15:00,50.4,47.9,29.90,ENE,67,0.0,1.0,91,0.03,,---,0.54,VWS V14.01,2014-03-02 03:15:00,
2014-03-01 19:20:00,50.4,47.9,29.90,ENE,68,0.0,3.0,91,0.03,,---,0.54,VWS V14.01,2014-03-02 03:20:00,
2014-03-01 19:25:00,50.3,47.8,29.90,ENE,67,0.0,3.0,91,0.03,,---,0.54,VWS V14.01,2014-03-02 03:25:00,
2014-03-01 19:30:00,50.3,47.5,29.91,ENE,67,0.0,0.0,90,0.02,,---,0.54,VWS V14.01,2014-03-02 03:30:00,
2014-03-01 19:35:00,50.3,47.5,29.91,SE,139,3.0,6.0,90,0.02,,---,0.54,VWS V14.01,2014-03-02 03:35:00,
2014-03-01 19:40:00,50.1,47.3,29.91,SE,146,1.0,9.0,90,0.03,,---,0.55,VWS V14.01,2014-03-02 03:40:00,
2014-03-01 19:45:00,50.0,47.2,29.91,ESE,110,3.0,4.0,90,0.03,,---,0.55,VWS V14.01,2014-03-02 03:45:00,
2014-03-01 19:50:00,49.9,47.1,29.91,SE,143,0.0,9.0,90,0.03,,---,0.55,VWS V14.01,2014-03-02 03:50:00,
2014-03-01 19:55:00,49.8,47.0,29.92,SE,145,0.0,9.0,90,0.03,,---,0.55,VWS V14.01,2014-03-02 03:55:00,
2014-03-01 20:00:00,49.8,47.0,29.92,East,99,3.0,3.0,90,0.03,,---,0.56,VWS V14.01,2014-03-02 04:00:00,
2014-03-01 20:05:00,49.7,46.9,29.92,East,92,5.0,7.0,90,0.03,,---,0.56,VWS V14.01,2014-03-02 04:05:00,
2014-03-01 20:10:00,49.7,46.9,29.92,East,84,1.0,7.0,90,0.03,,---,0.56,VWS V14.01,2014-03-02 04:10:00,
2014-03-01 20:15:00,49.7,47.2,29.92,ENE,67,6.0,6.0,91,0.02,,---,0.56,VWS V14.01,2014-03-02 04:15:00,
2014-03-01 20:20:00,49.8,47.3,29.92,NE,55,4.0,6.0,91,0.02,,---,0.56,VWS V14.01,2014-03-02 04:20:00,
2014-03-01 20:25:00,49.9,47.4,29.92,ENE,59,3.0,6.0,91,0.02,,---,0.56,VWS V14.01,2014-03-02 04:25:00,
2014-03-01 20:30:00,50.0,47.5,29.92,NE,55,2.0,3.0,91,0.02,,---,0.56,VWS V14.01,2014-03-02 04:30:00,
2014-03-01 20:35:00,50.1,47.6,29.92,NE,55,2.0,5.0,91,0.03,,---,0.57,VWS V14.01,2014-03-02 04:35:00,
2014-03-01 20:40:00,50.2,47.7,29.92,NE,54,0.0,5.0,91,0.03,,---,0.57,VWS V14.01,2014-03-02 04:40:00,
2014-03-01 20:45:00,50.2,47.7,29.92,ENE,59,0.0,0.0,91,0.02,,---,0.57,VWS V14.01,2014-03-02 04:45:00,
2014-03-01 20:50:00,50.3,47.8,29.92,ENE,60,2.0,4.0,91,0.02,,---,0.57,VWS V14.01,2014-03-02 04:50:00,
2014-03-01 20:55:00,50.3,47.8,29.92,ENE,60,0.0,4.0,91,0.02,,---,0.57,VWS V14.01,2014-03-02 04:55:00,
2014-03-01 21:00:00,50.3,47.8,29.92,ENE,59,0.0,0.0,91,0.02,,---,0.58,VWS V14.01,2014-03-02 05:00:00,
2014-03-01 21:01:00,50.3,47.8,29.92,ENE,60,0.0,0.0,91,0.02,,---,0.58,VWS V14.01,2014-03-02 05:01:00,
2014-03-01 21:06:00,50.3,47.8,29.93,ENE,59,0.0,0.0,91,0.02,,---,0.58,VWS V14.01,2014-03-02 05:06:00,
2014-03-01 21:11:00,50.3,47.8,29.92,ENE,60,0.0,2.0,91,0.02,,---,0.58,VWS V14.01,2014-03-02 05:11:00,
2014-03-01 21:15:00,50.5,48.0,29.93,ENE,61,1.0,4.0,91,0.02,,---,0.60,VWS V14.01,2014-03-02 05:15:00,
2014-03-01 21:16:00,50.3,47.8,29.92,ENE,59,0.0,0.0,91,0.02,,---,0.58,VWS V14.01,2014-03-02 05:16:00,
2014-03-01 21:21:00,50.4,47.9,29.92,ENE,59,0.0,0.0,91,0.02,,---,0.58,VWS V14.01,2014-03-02 05:21:00,
2014-03-01 21:26:00,50.4,47.9,29.92,ENE,59,0.0,3.0,91,0.02,,---,0.58,VWS V14.01,2014-03-02 05:26:00,
2014-03-01 21:30:00,50.5,48.0,29.92,SE,134,0.0,7.0,91,0.02,,---,0.60,VWS V14.01,2014-03-02 05:30:00,
2014-03-01 21:31:00,50.4,47.9,29.92,ENE,59,2.0,3.0,91,0.02,,---,0.58,VWS V14.01,2014-03-02 05:31:00,
2014-03-01 21:36:00,50.5,48.0,29.93,ENE,59,0.0,3.0,91,0.03,,---,0.59,VWS V14.01,2014-03-02 05:36:00,
2014-03-01 21:41:00,50.5,48.0,29.93,NE,54,0.0,4.0,91,0.03,,---,0.59,VWS V14.01,2014-03-02 05:41:00,
2014-03-01 21:45:00,50.5,48.0,29.93,SE,145,2.0,3.0,91,0.03,,---,0.61,VWS V14.01,2014-03-02 05:45:00,
2014-03-01 21:46:00,50.5,48.0,29.93,NE,55,0.0,0.0,91,0.02,,---,0.59,VWS V14.01,2014-03-02 05:46:00,
2014-03-01 21:51:00,50.5,48.0,29.93,NE,55,0.0,0.0,91,0.02,,---,0.59,VWS V14.01,2014-03-02 05:51:00,
2014-03-01 21:56:00,50.5,48.0,29.93,NE,54,0.0,3.0,91,0.02,,---,0.59,VWS V14.01,2014-03-02 05:56:00,
2014-03-01 22:00:00,50.2,47.7,29.92,ESE,106,2.0,5.0,91,0.02,,---,0.61,VWS V14.01,2014-03-02 06:00:00,
2014-03-01 22:01:00,50.5,48.0,29.92,NE,55,2.0,4.0,91,0.02,,---,0.60,VWS V14.01,2014-03-02 06:01:00,
2014-03-01 22:06:00,50.5,48.0,29.92,ENE,61,0.0,4.0,91,0.02,,---,0.60,VWS V14.01,2014-03-02 06:06:00,
2014-03-01 22:11:00,50.5,48.0,29.93,ENE,61,0.0,4.0,91,0.02,,---,0.60,VWS V14.01,2014-03-02 06:11:00,
2014-03-01 22:16:00,50.5,48.0,29.92,ENE,62,0.0,1.0,91,0.02,,---,0.60,VWS V14.01,2014-03-02 06:16:00,
2014-03-01 22:21:00,50.6,48.1,29.93,ENE,62,0.0,1.0,91,0.02,,---,0.60,VWS V14.01,2014-03-02 06:21:00,
2014-03-01 22:26:00,50.6,48.1,29.93,ENE,61,2.0,4.0,91,0.02,,---,0.60,VWS V14.01,2014-03-02 06:26:00,
2014-03-01 22:30:00,49.4,46.9,29.95,SE,130,0.0,4.0,91,0.02,,---,0.62,VWS V14.01,2014-03-02 06:30:00,
2014-03-01 22:31:00,50.5,48.0,29.92,SE,134,1.0,1.0,91,0.02,,---,0.60,VWS V14.01,2014-03-02 06:31:00,
2014-03-01 22:36:00,50.5,48.0,29.92,SE,137,3.0,3.0,91,0.02,,---,0.60,VWS V14.01,2014-03-02 06:36:00,
2014-03-01 22:41:00,50.5,48.0,29.93,SE,140,0.0,3.0,91,0.03,,---,0.61,VWS V14.01,2014-03-02 06:41:00,
2014-03-01 22:45:00,49.2,46.7,29.95,SE,130,0.0,0.0,91,0.03,,---,0.63,VWS V14.01,2014-03-02 06:45:00,
2014-03-01 22:46:00,50.5,48.0,29.93,SE,146,0.0,2.0,91,0.02,,---,0.61,VWS V14.01,2014-03-02 06:46:00,
2014-03-01 22:51:00,50.4,47.9,29.92,SE,124,3.0,4.0,91,0.02,,---,0.61,VWS V14.01,2014-03-02 06:51:00,
2014-03-01 22:56:00,50.3,47.8,29.92,East,96,4.0,4.0,91,0.02,,---,0.61,VWS V14.01,2014-03-02 06:56:00,
2014-03-01 23:00:00,48.7,46.2,29.95,SE,125,0.0,3.0,91,0.02,,---,0.63,VWS V14.01,2014-03-02 07:00:00,
2014-03-01 23:01:00,50.2,47.7,29.92,ESE,105,0.0,3.0,91,0.02,,---,0.62,VWS V14.01,2014-03-02 07:01:00,
2014-03-01 23:06:00,50.0,47.5,29.93,ESE,122,2.0,3.0,91,0.02,,---,0.62,VWS V14.01,2014-03-02 07:06:00,
2014-03-01 23:11:00,49.8,47.3,29.93,SE,128,1.0,3.0,91,0.02,,---,0.62,VWS V14.01,2014-03-02 07:11:00,
2014-03-01 23:15:00,48.2,45.7,29.96,SE,125,0.0,2.0,91,0.03,,---,0.01,VWS V14.01,2014-03-02 07:15:00,
2014-03-01 23:16:00,49.6,47.1,29.94,SSE,148,2.0,4.0,91,0.02,,---,0.62,VWS V14.01,2014-03-02 07:16:00,
2014-03-01 23:21:00,49.5,47.0,29.94,SSE,148,0.0,4.0,91,0.02,,---,0.62,VWS V14.01,2014-03-02 07:21:00,
2014-03-01 23:26:00,49.5,47.0,29.94,SE,130,0.0,4.0,91,0.02,,---,0.62,VWS V14.01,2014-03-02 07:26:00,
2014-03-01 23:30:00,47.9,45.4,29.97,SE,125,0.0,3.0,91,0.02,,---,0.01,VWS V14.01,2014-03-02 07:30:00,
2014-03-01 23:31:00,49.4,46.9,29.95,SE,130,0.0,0.0,91,0.02,,---,0.62,VWS V14.01,2014-03-02 07:31:00,
2014-03-01 23:36:00,49.3,46.8,29.95,SE,130,0.0,0.0,91,0.02,,---,0.62,VWS V14.01,2014-03-02 07:36:00,
2014-03-01 23:41:00,49.2,46.7,29.95,SE,130,0.0,0.0,91,0.02,,---,0.62,VWS V14.01,2014-03-02 07:41:00,
2014-03-01 23:46:00,49.2,46.7,29.95,SE,130,0.0,0.0,91,0.02,,---,0.63,VWS V14.01,2014-03-02 07:46:00,
2014-03-01 23:51:00,49.0,46.5,29.95,SE,130,0.0,0.0,91,0.02,,---,0.63,VWS V14.01,2014-03-02 07:51:00,
2014-03-01 23:56:00,48.9,46.4,29.95,SE,125,3.0,3.0,91,0.02,,---,0.63,VWS V14.01,2014-03-02 07:56:00,